Station Historical Data
Daily Summary for January 20, 2017 Units:  English    Metric   Both
« Previous Day
Next Day »
Daily Weekly Monthly Yearly Custom
  High: Low: Average:
Temperature: 71.9 °F 55.4 °F 61.6 °F
Dew Point: 60.2 °F 53.6 °F 55.2 °F
Humidity: 95% 54% 81%
Wind Speed: 9.2mph 9.2mph 9.2mph
Wind Gust: 9.2mph - -
Wind- - South
Pressure: 29.90 in 29.74 in -
Precipitation: 0.36 in    
Historical Graphs
 
 
Tabular Data for January 20, 2017
Time Temperature Dew Point Pressure Wind Wind Speed Wind Gust Humidity Rainfall Rate (Hourly) Conditions
00:03 56.7 °F 54.4 °F 29.89 in NNW 9.2 mph   92% 0.43 in RA
00:08 56.8 °F 54.5 °F 29.88 in NNW 9.2 mph   92% 0.01 in RA
00:13 56.9 °F 54.6 °F 29.87 in NNW 9.2 mph   92% 0.04 in RA
00:19 56.9 °F 54.6 °F 29.87 in NNW 9.2 mph   92% 0.07 in RA
00:24 56.9 °F 54.6 °F 29.87 in NNW 9.2 mph   92% 0.10 in RA
00:29 56.9 °F 54.6 °F 29.86 in NNW 9.2 mph   92% 0.10 in RA
00:34 56.9 °F 54.6 °F 29.86 in NNW 9.2 mph   92% 0.09 in RA
00:39 56.9 °F 54.6 °F 29.84 in NNW 9.2 mph   92% 0.07 in RA
00:44 56.8 °F 54.5 °F 29.83 in NW 9.2 mph 9.2 mph 92% 0.04 in RA
00:49 56.8 °F 54.5 °F 29.83 in NW 9.2 mph 9.2 mph 92% 0.00 in
00:54 55.9 °F 53.6 °F 29.83 in NW 9.2 mph   92% 0.43 in
00:59 55.9 °F 53.6 °F 29.82 in NW 9.2 mph   92% 0.38 in
01:04 55.9 °F 53.6 °F 29.79 in NNE 9.2 mph   92% 0.32 in
01:09 55.9 °F 53.6 °F 29.74 in North 9.2 mph   92% 0.27 in
01:15 55.9 °F 53.6 °F 29.78 in North 9.2 mph   92% 0.21 in
01:20 55.9 °F 53.6 °F 29.77 in North 9.2 mph   92% 0.16 in
01:25 55.9 °F 53.6 °F 29.78 in North 9.2 mph   92% 0.12 in
01:30 55.9 °F 53.6 °F 29.78 in North 9.2 mph   92% 0.09 in
01:35 55.9 °F 53.6 °F 29.79 in North 9.2 mph   92% 0.06 in
01:40 55.9 °F 53.6 °F 29.81 in North 9.2 mph   92% 0.04 in
01:45 55.9 °F 53.6 °F 29.82 in North 9.2 mph   92% 0.02 in
01:50 55.9 °F 53.6 °F 29.82 in North 9.2 mph   92% 0.00 in
01:55 55.9 °F 53.6 °F 29.82 in North 9.2 mph   92% 0.00 in
02:01 55.9 °F 53.6 °F 29.82 in North 9.2 mph   92% 0.00 in
02:06 55.9 °F 53.6 °F 29.83 in North 9.2 mph   92% 0.00 in
02:11 55.9 °F 53.6 °F 29.83 in North 9.2 mph   92% 0.00 in
02:16 55.9 °F 53.6 °F 29.83 in North 9.2 mph   92% 0.00 in
02:21 55.9 °F 53.6 °F 29.82 in North 9.2 mph   92% 0.00 in
02:26 55.9 °F 53.6 °F 29.82 in North 9.2 mph   92% 0.00 in
02:31 55.9 °F 53.6 °F 29.82 in North 9.2 mph   92% 0.00 in
02:36 55.9 °F 53.6 °F 29.82 in North 9.2 mph   92% 0.00 in
02:41 55.9 °F 53.6 °F 29.82 in North 9.2 mph   92% 0.00 in
02:46 55.9 °F 53.6 °F 29.82 in North 9.2 mph   92% 0.00 in
02:51 55.9 °F 53.6 °F 29.82 in North 9.2 mph   92% 0.00 in
02:57 55.9 °F 53.6 °F 29.82 in North 9.2 mph   92% 0.00 in
03:02 55.9 °F 53.6 °F 29.82 in North 9.2 mph   92% 0.00 in
03:07 55.9 °F 53.6 °F 29.82 in North 9.2 mph   92% 0.00 in
03:12 55.9 °F 53.6 °F 29.82 in North 9.2 mph   92% 0.00 in
03:17 55.9 °F 53.6 °F 29.82 in North 9.2 mph   92% 0.00 in
03:22 55.9 °F 53.6 °F 29.82 in North 9.2 mph   92% 0.00 in
03:27 55.9 °F 53.6 °F 29.82 in North 9.2 mph   92% 0.00 in
03:32 55.9 °F 53.6 °F 29.82 in North 9.2 mph   92% 0.00 in
03:37 55.9 °F 53.6 °F 29.82 in North 9.2 mph   92% 0.00 in
03:42 55.9 °F 53.6 °F 29.82 in North 9.2 mph   92% 0.00 in
03:48 55.9 °F 53.6 °F 29.82 in North 9.2 mph   92% 0.00 in
03:53 55.9 °F 53.6 °F 29.82 in North 9.2 mph   92% 0.00 in
03:58 55.9 °F 53.6 °F 29.82 in North 9.2 mph   92% 0.00 in
04:03 55.9 °F 53.6 °F 29.82 in North 9.2 mph   92% 0.00 in
04:08 55.9 °F 53.6 °F 29.82 in North 9.2 mph   92% 0.00 in
04:13 55.9 °F 53.6 °F 29.82 in North 9.2 mph   92% 0.00 in
04:18 55.9 °F 53.6 °F 29.81 in North 9.2 mph   92% 0.00 in
04:23 55.9 °F 53.6 °F 29.81 in North 9.2 mph   92% 0.00 in
04:28 55.9 °F 53.6 °F 29.81 in North 9.2 mph   92% 0.00 in
04:33 55.9 °F 53.6 °F 29.81 in North 9.2 mph   92% 0.00 in
04:39 55.9 °F 53.6 °F 29.81 in North 9.2 mph   92% 0.00 in
04:44 55.9 °F 53.6 °F 29.81 in North 9.2 mph   92% 0.00 in
04:49 55.9 °F 53.6 °F 29.81 in North 9.2 mph   92% 0.00 in
04:54 55.9 °F 53.6 °F 29.81 in North 9.2 mph   92% 0.00 in
04:59 55.9 °F 53.6 °F 29.81 in North 9.2 mph   92% 0.00 in
05:04 55.9 °F 53.6 °F 29.81 in North 9.2 mph   92% 0.00 in
05:09 55.9 °F 53.6 °F 29.82 in North 9.2 mph   92% 0.00 in
05:14 55.9 °F 53.6 °F 29.81 in North 9.2 mph   92% 0.00 in
05:19 55.9 °F 53.6 °F 29.81 in North 9.2 mph   92% 0.00 in
05:24 55.9 °F 53.6 °F 29.81 in North 9.2 mph   92% 0.00 in
05:30 55.9 °F 53.6 °F 29.82 in North 9.2 mph   92% 0.00 in
05:35 55.9 °F 53.6 °F 29.82 in North 9.2 mph   92% 0.00 in
05:40 55.9 °F 53.6 °F 29.82 in North 9.2 mph   92% 0.00 in
05:45 55.9 °F 53.6 °F 29.82 in North 9.2 mph   92% 0.00 in
05:50 55.9 °F 53.6 °F 29.82 in North 9.2 mph   92% 0.00 in
05:55 55.9 °F 53.6 °F 29.82 in North 9.2 mph   92% 0.00 in
06:00 55.9 °F 53.6 °F 29.82 in North 9.2 mph   92% 0.00 in
06:05 55.9 °F 53.6 °F 29.82 in North 9.2 mph   92% 0.00 in
06:10 55.9 °F 53.6 °F 29.82 in North 9.2 mph   92% 0.00 in
06:15 55.9 °F 53.6 °F 29.82 in North 9.2 mph   92% 0.00 in
06:20 55.9 °F 53.6 °F 29.83 in North 9.2 mph   92% 0.00 in
06:25 55.9 °F 53.6 °F 29.83 in North 9.2 mph   92% 0.00 in
06:30 55.9 °F 53.6 °F 29.83 in North 9.2 mph   92% 0.00 in
06:35 55.9 °F 53.6 °F 29.83 in North 9.2 mph   92% 0.00 in
06:41 55.9 °F 53.6 °F 29.83 in North 9.2 mph   92% 0.00 in
06:46 55.9 °F 53.6 °F 29.83 in North 9.2 mph   92% 0.00 in
06:51 55.9 °F 53.6 °F 29.83 in North 9.2 mph   92% 0.00 in
06:56 55.9 °F 53.6 °F 29.83 in North 9.2 mph   92% 0.00 in
07:01 55.9 °F 53.6 °F 29.83 in North 9.2 mph   92% 0.00 in
07:06 55.9 °F 53.6 °F 29.83 in North 9.2 mph   92% 0.00 in
07:11 55.9 °F 53.6 °F 29.83 in North 9.2 mph   92% 0.00 in CLR
07:16 55.9 °F 53.6 °F 29.83 in North 9.2 mph   92% 0.00 in CLR
07:21 55.9 °F 53.6 °F 29.83 in North 9.2 mph   92% 0.00 in CLR
07:26 55.9 °F 53.6 °F 29.84 in North 9.2 mph   92% 0.00 in CLR
07:32 55.9 °F 53.6 °F 29.84 in North 9.2 mph   92% 0.00 in CLR
07:37 55.9 °F 53.6 °F 29.84 in North 9.2 mph   92% 0.00 in CLR
07:42 55.9 °F 53.6 °F 29.84 in North 9.2 mph   92% 0.00 in CLR
07:47 55.9 °F 53.6 °F 29.84 in North 9.2 mph   92% 0.00 in CLR
07:52 55.9 °F 53.6 °F 29.85 in North 9.2 mph   92% 0.00 in CLR
07:57 55.9 °F 53.6 °F 29.84 in North 9.2 mph   92% 0.00 in CLR
08:02 55.9 °F 53.6 °F 29.85 in North 9.2 mph   92% 0.00 in CLR
08:07 55.9 °F 53.6 °F 29.85 in North 9.2 mph   92% 0.00 in CLR
08:12 55.9 °F 53.6 °F 29.85 in North 9.2 mph   92% 0.00 in CLR
08:17 55.9 °F 53.6 °F 29.85 in North 9.2 mph   92% 0.00 in CLR
08:23 55.9 °F 53.6 °F 29.85 in North 9.2 mph   92% 0.00 in CLR
08:28 55.9 °F 53.6 °F 29.86 in North 9.2 mph   92% 0.00 in CLR
08:33 55.9 °F 53.6 °F 29.86 in North 9.2 mph   92% 0.00 in CLR
08:38 55.9 °F 53.6 °F 29.86 in North 9.2 mph   92% 0.00 in CLR
08:43 55.9 °F 53.6 °F 29.86 in North 9.2 mph   92% 0.00 in CLR
08:48 55.9 °F 53.6 °F 29.86 in North 9.2 mph   92% 0.00 in CLR
08:53 55.9 °F 53.6 °F 29.87 in North 9.2 mph   92% 0.00 in CLR
08:58 55.9 °F 53.6 °F 29.87 in North 9.2 mph   92% 0.00 in CLR
09:03 55.9 °F 53.6 °F 29.86 in North 9.2 mph   92% 0.00 in OVC
09:08 55.9 °F 53.6 °F 29.87 in North 9.2 mph   92% 0.00 in OVC
09:13 61.4 °F 59.7 °F 29.87 in NNW 9.2 mph   94% 0.00 in OVC
09:19 61.6 °F 59.9 °F 29.87 in NNW 9.2 mph   94% 0.00 in OVC
09:24 61.7 °F 59.7 °F 29.87 in NW 9.2 mph 9.2 mph 93% 0.00 in OVC
09:29 61.9 °F 59.9 °F 29.87 in North 9.2 mph   93% 0.00 in OVC
09:34 62.1 °F 60.1 °F 29.88 in NW 9.2 mph   93% 0.00 in OVC
09:36 62.3 °F 60.2 °F 29.88 in NW 9.2 mph   93% 0.00 in OVC
09:41 62.5 °F 60.1 °F 29.89 in NW 9.2 mph   92% 0.00 in OVC
09:46 62.7 °F 60.0 °F 29.89 in NNW 9.2 mph   91% 0.00 in OVC
09:51 63.0 °F 60.0 °F 29.89 in East 9.2 mph 9.2 mph 90% 0.00 in OVC
09:56 63.2 °F 59.9 °F 29.89 in ENE 9.2 mph   89% 0.00 in OVC
10:01 63.4 °F 60.1 °F 29.89 in WNW 9.2 mph   89% 0.00 in OVC
10:06 63.3 °F 59.7 °F 29.89 in NNW 9.2 mph   88% 0.00 in OVC
10:12 63.2 °F 59.6 °F 29.90 in NE 9.2 mph 9.2 mph 88% 0.00 in OVC
10:42 65.2 °F 59.9 °F 29.89 in North 9.2 mph 9.2 mph 83% 0.00 in OVC
10:47 65.3 °F 59.7 °F 29.90 in NNE 9.2 mph   82% 0.00 in OVC
10:52 65.4 °F 59.8 °F 29.90 in NNW 9.2 mph   82% 0.00 in OVC
10:57 65.3 °F 59.3 °F 29.89 in North 9.2 mph 9.2 mph 81% 0.00 in OVC
11:02 65.2 °F 58.5 °F 29.90 in North 9.2 mph   79% 0.00 in OVC
11:08 64.9 °F 58.9 °F 29.90 in NW 9.2 mph 9.2 mph 81% 0.00 in OVC
11:13 64.9 °F 58.9 °F 29.90 in North 9.2 mph 9.2 mph 81% 0.00 in OVC
11:18 65.1 °F 58.8 °F 29.89 in NW 9.2 mph 9.2 mph 80% 0.00 in OVC
11:23 65.9 °F 59.6 °F 29.89 in West 9.2 mph 9.2 mph 80% 0.00 in OVC
11:28 66.9 °F 58.7 °F 29.89 in North 9.2 mph 9.2 mph 75% 0.00 in OVC
11:33 67.5 °F 59.3 °F 29.89 in NW 9.2 mph   75% 0.00 in OVC
11:38 67.6 °F 59.0 °F 29.89 in North 9.2 mph   74% 0.00 in OVC
11:43 67.8 °F 59.6 °F 29.88 in ENE 9.2 mph 9.2 mph 75% 0.00 in OVC
11:48 68.6 °F 59.6 °F 29.88 in ENE 9.2 mph   73% 0.00 in OVC
11:53 69.5 °F 58.9 °F 29.87 in NW 9.2 mph 9.2 mph 69% 0.00 in OVC
11:59 70.1 °F 58.6 °F 29.88 in NNW 9.2 mph 9.2 mph 67% 0.00 in OVC
12:04 70.1 °F 58.6 °F 29.88 in North 9.2 mph 9.2 mph 67% 0.00 in OVC
12:09 69.8 °F 58.3 °F 29.87 in NW 9.2 mph 9.2 mph 67% 0.00 in OVC
12:10 69.7 °F 58.3 °F 29.87 in NNW 9.2 mph 9.2 mph 67% 0.00 in OVC
12:15 69.3 °F 57.9 °F 29.87 in North 9.2 mph   67% 0.00 in OVC
12:20 69.0 °F 58.0 °F 29.86 in North 9.2 mph   68% 0.00 in OVC
12:26 69.1 °F 58.1 °F 29.86 in NNE 9.2 mph   68% 0.00 in OVC
12:31 69.4 °F 58.4 °F 29.86 in NNE 9.2 mph 9.2 mph 68% 0.00 in OVC
12:36 69.7 °F 57.0 °F 29.86 in North 9.2 mph 9.2 mph 64% 0.00 in OVC
12:41 70.3 °F 57.1 °F 29.85 in NNE 9.2 mph 9.2 mph 63% 0.00 in OVC
12:46 70.2 °F 56.1 °F 29.85 in NW 9.2 mph 9.2 mph 61% 0.00 in OVC
12:51 69.6 °F 55.6 °F 29.85 in WNW 9.2 mph 9.2 mph 61% 0.00 in OVC
12:56 69.7 °F 56.5 °F 29.85 in NW 9.2 mph 9.2 mph 63% 0.00 in OVC
13:01 69.9 °F 55.4 °F 29.85 in NNW 9.2 mph 9.2 mph 60% 0.00 in OVC
13:07 69.7 °F 55.2 °F 29.85 in NW 9.2 mph   60% 0.00 in OVC
13:12 69.3 °F 55.7 °F 29.84 in NNW 9.2 mph 9.2 mph 62% 0.00 in OVC
13:17 68.9 °F 56.6 °F 29.85 in WNW 9.2 mph   65% 0.00 in OVC
13:22 69.5 °F 56.3 °F 29.84 in NNE 9.2 mph   63% 0.00 in OVC
13:27 70.8 °F 56.2 °F 29.83 in NNE 9.2 mph 9.2 mph 60% 0.00 in OVC
13:32 71.7 °F 56.1 °F 29.83 in NE 9.2 mph 9.2 mph 58% 0.00 in OVC
13:37 71.3 °F 55.8 °F 29.83 in North 9.2 mph 9.2 mph 58% 0.00 in OVC
13:42 70.9 °F 55.9 °F 29.83 in NE 9.2 mph 9.2 mph 59% 0.00 in OVC
13:47 71.1 °F 55.6 °F 29.83 in NNW 9.2 mph 9.2 mph 58% 0.00 in OVC
13:52 71.3 °F 55.3 °F 29.83 in NE 9.2 mph 9.2 mph 57% 0.00 in OVC
13:57 71.0 °F 55.5 °F 29.83 in NW 9.2 mph 9.2 mph 58% 0.00 in OVC
14:03 70.6 °F 55.1 °F 29.82 in NE 9.2 mph 9.2 mph 58% 0.00 in OVC
14:08 70.9 °F 56.3 °F 29.82 in NNW 9.2 mph 9.2 mph 60% 0.00 in OVC
14:13 71.2 °F 56.1 °F 29.82 in NW 9.2 mph 9.2 mph 59% 0.00 in OVC
14:18 71.2 °F 55.7 °F 29.82 in WNW 9.2 mph 9.2 mph 58% 0.00 in OVC
14:23 71.4 °F 55.9 °F 29.82 in NE 9.2 mph 9.2 mph 58% 0.00 in OVC
14:28 71.4 °F 54.9 °F 29.82 in SSW 9.2 mph 9.2 mph 56% 0.00 in OVC
14:33 71.1 °F 55.6 °F 29.82 in North 9.2 mph   58% 0.00 in OVC
14:38 71.1 °F 54.6 °F 29.82 in WNW 9.2 mph 9.2 mph 56% 0.00 in OVC
14:43 71.3 °F 54.8 °F 29.82 in North 9.2 mph 9.2 mph 56% 0.00 in OVC
14:49 71.2 °F 54.7 °F 29.82 in West 9.2 mph 9.2 mph 56% 0.00 in OVC
14:54 70.9 °F 54.9 °F 29.82 in West 9.2 mph 9.2 mph 57% 0.00 in OVC
14:59 70.8 °F 54.8 °F 29.82 in WNW 9.2 mph 9.2 mph 57% 0.00 in OVC
15:04 70.6 °F 55.6 °F 29.82 in NNE 9.2 mph 9.2 mph 59% 0.00 in OVC
15:09 70.9 °F 54.4 °F 29.82 in North 9.2 mph 9.2 mph 56% 0.00 in OVC
15:14 71.3 °F 54.8 °F 29.82 in NW 9.2 mph 9.2 mph 56% 0.00 in OVC
15:19 71.3 °F 54.8 °F 29.82 in West 9.2 mph 9.2 mph 56% 0.00 in OVC
15:24 71.0 °F 54.5 °F 29.82 in NW 9.2 mph   56% 0.00 in OVC
15:29 70.7 °F 55.7 °F 29.83 in NW 9.2 mph 9.2 mph 59% 0.00 in OVC
15:34 71.1 °F 55.6 °F 29.83 in NW 9.2 mph   58% 0.00 in OVC
15:39 71.4 °F 55.4 °F 29.82 in NW 9.2 mph 9.2 mph 57% 0.00 in OVC
15:44 71.5 °F 55.5 °F 29.82 in NE 9.2 mph 9.2 mph 57% 0.00 in OVC
15:50 71.9 °F 55.8 °F 29.82 in NW 9.2 mph   57% 0.00 in OVC
15:55 71.9 °F 54.9 °F 29.82 in WNW 9.2 mph 9.2 mph 55% 0.00 in OVC
16:00 71.6 °F 54.1 °F 29.82 in NE 9.2 mph 9.2 mph 54% 0.00 in
16:05 71.4 °F 54.4 °F 29.83 in NW 9.2 mph 9.2 mph 55% 0.00 in CLR
16:10 71.2 °F 54.7 °F 29.83 in NW 9.2 mph 9.2 mph 56% 0.00 in CLR
16:15 71.1 °F 55.1 °F 29.82 in NNE 9.2 mph 9.2 mph 57% 0.00 in CLR
16:20 70.9 °F 54.4 °F 29.82 in North 9.2 mph 9.2 mph 56% 0.00 in CLR
16:25 70.7 °F 54.7 °F 29.82 in NW 9.2 mph   57% 0.00 in CLR
16:30 70.6 °F 54.6 °F 29.82 in NNW 9.2 mph   57% 0.00 in CLR
16:35 70.1 °F 54.2 °F 29.82 in NNW 9.2 mph   57% 0.00 in CLR
16:41 69.7 °F 54.3 °F 29.83 in West 9.2 mph   58% 0.00 in CLR
16:46 69.5 °F 54.1 °F 29.83 in West 9.2 mph   58% 0.00 in CLR
16:51 69.5 °F 54.5 °F 29.83 in WNW 9.2 mph   59% 0.00 in CLR
16:56 69.3 °F 54.4 °F 29.82 in WNW 9.2 mph 9.2 mph 59% 0.00 in CLR
17:01 69.0 °F 54.5 °F 29.82 in WNW 9.2 mph   60% 0.00 in CLR
17:06 68.6 °F 54.6 °F 29.82 in WNW 9.2 mph   61% 0.00 in CLR
17:11 68.4 °F 54.4 °F 29.82 in North 9.2 mph   61% 0.00 in CLR
17:16 68.2 °F 54.7 °F 29.82 in North 9.2 mph   62% 0.00 in CLR
17:21 67.9 °F 55.3 °F 29.82 in North 9.2 mph   64% 0.00 in CLR
17:26 67.7 °F 54.6 °F 29.82 in WNW 9.2 mph 9.2 mph 63% 0.00 in CLR
17:32 67.4 °F 54.8 °F 29.82 in NNW 9.2 mph   64% 0.00 in CLR
17:37 67.0 °F 54.8 °F 29.82 in NNW 9.2 mph   65% 0.00 in CLR
17:42 66.6 °F 55.3 °F 29.83 in NNW 9.2 mph   67% 0.00 in CLR
17:47 66.2 °F 54.9 °F 29.83 in NNW 9.2 mph   67% 0.00 in CLR
17:52 65.9 °F 55.0 °F 29.83 in NW 9.2 mph   68% 0.00 in CLR
17:57 65.6 °F 54.8 °F 29.83 in NW 9.2 mph   68% 0.00 in CLR
18:02 65.4 °F 55.0 °F 29.83 in NNW 9.2 mph   69% 0.00 in
18:07 65.0 °F 54.6 °F 29.82 in NNW 9.2 mph   69% 0.00 in
18:12 64.9 °F 54.9 °F 29.83 in NNW 9.2 mph   70% 0.00 in
18:17 64.5 °F 54.5 °F 29.82 in NNW 9.2 mph   70% 0.00 in
18:23 64.1 °F 54.5 °F 29.83 in NNW 9.2 mph   71% 0.00 in
18:28 63.8 °F 54.6 °F 29.83 in NNW 9.2 mph   72% 0.00 in
18:33 63.5 °F 54.3 °F 29.83 in NNW 9.2 mph   72% 0.00 in
18:38 63.3 °F 54.5 °F 29.83 in NNW 9.2 mph   73% 0.00 in
18:43 63.1 °F 54.7 °F 29.83 in NNW 9.2 mph   74% 0.00 in
18:48 62.8 °F 54.4 °F 29.84 in NNW 9.2 mph   74% 0.00 in
18:53 62.6 °F 54.6 °F 29.84 in NNW 9.2 mph   75% 0.00 in
18:58 62.4 °F 54.7 °F 29.84 in NNW 9.2 mph   76% 0.00 in
19:03 62.5 °F 54.8 °F 29.84 in NNW 9.2 mph   76% 0.00 in
19:08 62.7 °F 55.0 °F 29.84 in NNW 9.2 mph   76% 0.00 in
19:13 62.7 °F 55.0 °F 29.84 in NNW 9.2 mph   76% 0.00 in
19:18 62.9 °F 55.6 °F 29.84 in NNW 9.2 mph   77% 0.00 in
19:23 62.8 °F 55.5 °F 29.84 in NNW 9.2 mph   77% 0.00 in
19:29 62.6 °F 55.3 °F 29.84 in NNW 9.2 mph   77% 0.00 in
19:34 62.4 °F 55.4 °F 29.85 in NNW 9.2 mph   78% 0.00 in
19:39 62.2 °F 55.6 °F 29.85 in NNW 9.2 mph   79% 0.00 in
19:44 62.0 °F 55.8 °F 29.85 in NNW 9.2 mph   80% 0.00 in
19:49 61.8 °F 55.6 °F 29.86 in NNW 9.2 mph   80% 0.00 in
19:54 61.7 °F 55.8 °F 29.86 in North 9.2 mph   81% 0.00 in
19:59 61.7 °F 55.8 °F 29.86 in North 9.2 mph   81% 0.00 in
20:04 61.5 °F 55.6 °F 29.86 in North 9.2 mph   81% 0.00 in
20:09 61.4 °F 55.9 °F 29.86 in North 9.2 mph   82% 0.00 in
20:14 61.2 °F 55.7 °F 29.86 in North 9.2 mph   82% 0.00 in
20:20 61.0 °F 55.5 °F 29.86 in North 9.2 mph   82% 0.00 in
20:25 60.9 °F 55.7 °F 29.86 in North 9.2 mph   83% 0.00 in
20:30 60.7 °F 55.8 °F 29.87 in North 9.2 mph   84% 0.00 in
20:35 60.6 °F 55.7 °F 29.87 in North 9.2 mph   84% 0.00 in
20:40 60.4 °F 55.9 °F 29.87 in North 9.2 mph   85% 0.00 in
20:45 60.4 °F 55.9 °F 29.88 in North 9.2 mph   85% 0.00 in
20:50 60.5 °F 56.0 °F 29.88 in North 9.2 mph   85% 0.00 in
20:55 60.4 °F 55.9 °F 29.88 in North 9.2 mph   85% 0.00 in
21:00 60.4 °F 55.9 °F 29.88 in North 9.2 mph   85% 0.00 in
21:05 60.5 °F 56.3 °F 29.89 in North 9.2 mph   86% 0.00 in
21:11 60.5 °F 56.3 °F 29.89 in North 9.2 mph   86% 0.00 in
21:16 60.5 °F 56.3 °F 29.89 in North 9.2 mph   86% 0.00 in
21:21 60.5 °F 56.3 °F 29.89 in North 9.2 mph   86% 0.00 in
21:26 60.5 °F 56.3 °F 29.89 in North 9.2 mph   86% 0.00 in
21:31 60.6 °F 56.7 °F 29.89 in North 9.2 mph   87% 0.00 in
21:36 60.4 °F 56.2 °F 29.89 in North 9.2 mph   86% 0.00 in
21:41 60.3 °F 56.4 °F 29.89 in North 9.2 mph   87% 0.00 in
21:46 60.3 °F 56.4 °F 29.89 in North 9.2 mph   87% 0.00 in
21:51 60.1 °F 56.2 °F 29.89 in North 9.2 mph   87% 0.00 in
21:56 60.0 °F 56.4 °F 29.89 in North 9.2 mph   88% 0.00 in
22:01 59.9 °F 56.3 °F 29.89 in North 9.2 mph   88% 0.00 in
22:07 59.7 °F 56.1 °F 29.88 in North 9.2 mph   88% 0.00 in
22:12 59.5 °F 55.9 °F 29.88 in North 9.2 mph   88% 0.00 in
22:17 59.2 °F 55.6 °F 29.88 in North 9.2 mph   88% 0.00 in
22:22 59.0 °F 55.8 °F 29.88 in North 9.2 mph   89% 0.00 in
22:27 58.9 °F 55.7 °F 29.88 in North 9.2 mph   89% 0.00 in
22:32 58.7 °F 55.5 °F 29.88 in North 9.2 mph   89% 0.00 in
22:37 58.6 °F 55.4 °F 29.88 in North 9.2 mph   89% 0.00 in
22:42 58.3 °F 55.1 °F 29.88 in North 9.2 mph   89% 0.00 in
22:47 58.1 °F 54.9 °F 29.88 in North 9.2 mph   89% 0.00 in
22:52 58.0 °F 55.1 °F 29.88 in North 9.2 mph   90% 0.00 in
22:57 57.9 °F 55.0 °F 29.88 in North 9.2 mph   90% 0.00 in
23:02 57.6 °F 54.7 °F 29.88 in North 9.2 mph   90% 0.00 in
23:08 57.3 °F 54.4 °F 29.88 in North 9.2 mph   90% 0.00 in
23:13 57.1 °F 54.2 °F 29.88 in North 9.2 mph   90% 0.00 in
23:18 57.0 °F 54.4 °F 29.88 in North 9.2 mph   91% 0.00 in
23:23 57.1 °F 54.5 °F 29.88 in North 9.2 mph   91% 0.00 in
23:28 56.8 °F 54.2 °F 29.87 in North 9.2 mph   91% 0.00 in
23:33 56.6 °F 54.0 °F 29.87 in North 9.2 mph   91% 0.00 in
23:38 56.6 °F 54.0 °F 29.88 in North 9.2 mph   91% 0.00 in
23:43 56.4 °F 53.8 °F 29.88 in North 9.2 mph   91% 0.00 in
23:48 55.4 °F 54.0 °F 29.88 in NNW 9.2 mph   95% 0.00 in
23:53 55.4 °F 54.0 °F 29.88 in NNW 9.2 mph   95% 0.00 in
23:58 55.4 °F 54.0 °F 29.88 in North 9.2 mph   95% 0.00 in
Piedmont Bend
Compliments of Weather Underground - 4 mb